User: anonymous   Login
Location: Unspecified
(0.0000°N, 0.0000°E)
Time: 16:19:58
(UTC+00:00)
Language:

SERT 2 - Orbit

View from above orbital plane
View from above orbital plane
View from above satellite
View from above satellite

Ground track
Ground track

The orbit data is extracted from the following two-line orbital elements,

1  4327U 70009A   18114.82187177 -.00000020 +00000-0 +28892-4 0  9994
2  4327 099.2892 197.2195 0004317 336.7473 129.8143 13.58475962389399
Epoch (UTC): 24 April 2018 19:43:29
Eccentricity: 0.0004317
inclination: 99.2892°
perigee height: 1038 km
apogee height: 1044 km
right ascension of ascending node: 197.2195°
argument of perigee: 336.7473°
revolutions per day: 13.58475962
mean anomaly at epoch: 129.8143°
orbit number at epoch: 38939

The dashed part of the orbit path shows where the satellite is in the earth's shadow,  

DLR